Location: Capelle
(50.3413°N, 1.9974°E)
Time: 00:32:11
(UTC+00:00)

NOSS 3-4 (A) - Pass Details

Date: 12 January 2026
Orbit: 769 x 1442 km, 63.4° (Epoch: 10 January)

Event Time Altitude Azimuth Distance (km) Brightness Sun altitude
Rises 19:21:40 0° 231° (SW) 3,243 6.9 -29.3°
Reaches altitude 10° 19:24:00 10° 234° (SW) 2,343 6.1 -29.6°
Enters shadow 19:28:55 67° 290° (WNW) 903 3.4 -30.4°
